SCP
-0 0 0 -0 -0 -0 -0 -0 -0 -0 -0 -0 -0 -0 -0 0 0 0 0 0 0 0 0 0 0 0 0 0 0 -0 0 0 0 0 0 0 0 0 0 0 0 0 0 0 0 0 0 0 0 0 0 0 0 0
0 -0 0 -0 -0 -0 0 0 -0 -0 -0 -0 -0 -0 0 0 0 0 0 0 0 0 0 0 0 0 0 0 0 0 0 0 0 0 0 0 0 0 0 0 0 0 0 0 0 0 0 0 0 0 0 0 0 0
0 0 0 -0 -0 -0 -0 -0 -0 -0 -0 -0 0 0 0 0 0 0 0 0 0 0 0 0 0 0 0 0 0 0 0 0 0 0 0 0 0 0 0 0 0 0 0 0 0 0 0 0 0 0 0 0 0 0
0 0 0 0 -0 -0 -0 -0 -0 0 -0 -0 -0 -0 -0 0 0 0 0 0 0 0 0 0 0 0 0 0 -0 0 0 0 0 0 0 0 0 0 0 0 0 0 0 0 0 0 0 0 0 0 0 0 0 0
0 0 0 0 0 0 -0 0 -0 -0 -0 -0 -0 0 0 0 0 0 0 0 0 0 0 0 0 0 0 0 0 0 0 0 0 0 0 0 0 0 0 0 0 0 0 0 0 0 0 0 0 0 0 0 0 0
-0 -0 -0 0 0 0 0 0 0 0 0 0 0 0 0 0 0 0 0 0 0 0 0 0 0 0 0 0 0 0 0 0 0 0 0 0 0 0 -0 0 0 0 0 0 0 0 0 0 0 0 0 0 0 0
0 -0 -0 -0 -0 -0 -0 0 -0 -0 -0 -0 -0 -0 -0 -0 0 0 0 0 0 0 0 0 0 0 0 0 0 0 0 0 0 0 0 0 0 0 0 0 0 0 0 0 0 0 0 0 0 0 0 0 0 0
-0 0 -0 -0 -0 0 0 -0 -0 -0 -0 -0 -0 -0 -0 -0 0 0 0 0 0 -0 0 0 0 0 0 0 -0 0 0 0 0 0 0 0 0 0 0 0 0 0 0 0 0 0 0 0 0 0 0 0 0 0
-0 -0 -0 0 0 0 0 0 -0 -0 -0 -0 0 -0 0 0 0 0 0 0 0 0 0 0 0 0 0 0 0 0 0 0 0 0 0 0 0 0 0 0 0 0 0 0 0 0 0 0 0 0 0 0 0 0
-0 -0 -0 0 0 -0 -0 0 0 0 -0 -0 0 0 -0 0 -0 -0 -0 0 -0 0 0 0 0 0 0 0 0 0 0 0 -0 0 0 0 0 0 0 0 0 0 0 0 0 0 0 0 0 0 0 0 0 0
-0 -0 -0 -0 -0 0 0 0 0 0 0 0 -0 -0 0 -0 -0 -0 0 0 0 0 0 0 0 0 0 0 0 0 0 0 0 0 0 0 0 0 0 0 0 0 0 0 0 0 0 0 0 0 0 0 0 0
-0 -0 -0 -0 -0 -0 0 0 0 0 -0 -0 -0 -0 0 -0 -0 0 -0 0 0 0 0 0 0 0 0 0 0 0 0 0 0 0 0 0 0 0 0 0 -0 0 0 0 0 0 0 0 0 0 0 0 0 0
-0 -0 -0 0 -0 0 0 -0 -0 -0 -0 -0 -0 0 -0 0 0 0 0 -0 0 0 0 0 0 0 0 0 0 0 0 0 0 0 0 0 0 0 0 0 -0 -0 0 0 0 0 0 0 0 0 0 0 0 0
0 0 -0 -0 -0 0 0 0 0 0 0 -0 -0 -0 0 0 0 -0 -0 0 0 0 0 0 0 0 0 0 -0 0 0 0 0 0 0 0 -0 0 -0 -0 0 -0 0 0 0 0 0 0 0 0 -0 -0 -0 -0
0 0 0 0 0 0 0 0 0 0 -0 0 0 0 0 0 0 0 0 0 0 0 0 0 0 0 0 0 0 0 0 0 0 0 0 -0 -0 0 0 0 0 0 0 0 0 0 0 0 0 0 -0 -0 -0 -0
0 0 0 -0 -0 -0 0 0 0 -0 0 -0 -0 -0 0 0 0 0 0 0 0 0 -0 -0 0 0 0 0 0 0 0 0 0 0 -0 0 0 0 0 0 0 0 0 0 0 0 0 0 0 0 0 -0 -0 -0
0 -0 0 -0 0 -0 -0 0 0 -0 0 -0 -0 -0 0 0 0 0 0 0 -0 -0 -0 0 0 0 0 0 0 0 0 0 0 0 0 0 0 -0 -0 -0 -0 -0 0 0 0 0 0 0 0 0 0 0 0 0
0 -0 -0 0 -0 -0 0 0 0 0 0 0 0 0 0 0 0 0 0 0 0 -0 0 0 0 0 0 0 0 0 0 0 0 -0 -0 -0 -0 -0 -0 -0 -0 0 0 0 0 0 0 0 0 0 0 0 0 0
-0 -0 0 0 0 0 0 0 0 0 0 0 0 0 0 0 0 0 0 0 0 0 0 0 0 0 0 0 -0 -0 -0 -0 -0 -0 -0 -0 -0 -0 0 0 0 0 -0 0 0 0 0 0 0 0 0 0 0 0
0 0 -0 0 0 0 0 0 0 0 0 0 0 0 -0 -0 -0 0 0 0 0 0 0 0 0 0 0 -0 -0 -0 -0 -0 0 0 -0 -0 -0 0 -0 -0 -0 0 0 0 0 0 0 0 0 0 0 0 0 0
0 -0 -0 0 0 0 0 0 0 0 0 0 0 0 0 0 0 0 -0 -0 -0 -0 -0 -0 -0 -0 -0 -0 -0 -0 -0 -0 -0 0 0 0 0 0 0 0 0 0 0 0 0 0 0 0 0 0 0 0 0 0
0 -0 -0 -0 -0 -0 -0 0 -0 0 -0 -0 -0 -0 -0 -0 -0 0 0 -0 -0 -0 -0 -0 -0 -0 -0 -0 -0 -0 -0 0 0 0 0 0 0 0 0 0 0 0 0 0 0 0 0 0 0 0 0 0 0 0
-0 -0 0 -0 0 -0 0 0 0 -0 0 0 -0 0 0 0 0 0 0 0 0 -0 -0 0 0 -0 0 0 0 0 0 0 0 0 0 0 0 0 0 0 0 0 0 0 0 0 0 0 0 0 0 0 0 0
0 0 0 0 0 0 0 0 0 0 0 0 0 0 0 0 0 0 0 0 0 0 0 0 0 0 0 -0 -0 0 0 0 0 0 0 0 0 0 0 0 0 0 0 0 0 0 0 0 0 0 0 0 0 0
0 0 0 0 0 0 0 0 -0 0 0 0 0 0 0 0 0 0 0 0 0 0 0 0 0 0 0 0 0 0 0 0 0 0 0 0 0 0 0 0 0 0 0 0 0 0 0 0 0 0 0 0 0 0
0 0 0 0 0 0 0 0 0 0 0 0 0 0 0 0 0 0 0 0 0 0 0 0 0 0 0 0 0 0 0 0 0 0 0 0 0 0 0 0 0 0 0 0 0 0 0 0 0 0 0 0 0 0
0 0 0 0 0 0 0 0 0 0 0 0 0 0 0 0 0 0 0 0 0 0 0 0 0 0 0 0 0 0 0 0 0 0 0 0 0 0 0 0 0 0 0 0 0 0 0 0 0 0 0 0 0 0
0 0 0 0 0 0 0 0 0 0 0 0 0 0 0 0 0 0 0 0 0 0 0 0 0 0 0 0 0 0 0 0 0 0 0 0 0 0 0 0 0 0 0 0 0 0 0 0 0 0 0 0 0 0
0 0 0 0 0 0 0 0 0 0 0 0 0 0 0 0 0 0 0 0 0 0 0 0 0 0 0 0 0 0 0 0 0 0 0 0 0 0 0 0 0 0 0 0 0 0 0 0 0 0 0 0 0 0
0 0 0 0 0 0 0 0 0 0 0 0 0 0 0 0 0 0 0 0 0 0 0 0 0 0 0 0 0 0 0 0 0 0 0 0 0 0 0 0 0 0 0 0 0 0 0 0 0 0 0 0 0 0
0 0 0 0 0 0 0 0 0 0 0 0 0 0 0 0 0 0 0 0 0 0 0 0 0 0 0 0 0 0 0 0 0 0 0 0 0 0 0 0 0 0 0 0 0 0 0 0 0 0 0 0 0 0
0 0 0 0 0 0 0 0 0 0 0 0 0 0 0 0 0 0 0 0 0 0 0 0 0 0 0 0 0 0 0 0 0 0 0 0 0 0 0 0 0 0 0 0 0 0 0 0 0 0 0 0 0 0
0 0 0 0 0 0 0 0 0 0 0 0 0 0 0 0 0 0 0 0 0 0 0 0 0 0 0 0 0 0 0 0 0 0 0 0 0 0 0 0 0 0 0 0 0 0 0 0 0 0 0 0 0 0
Wind_Speed_500mb
80 86 92 87 71 77 85 84 101 111 102 102 112 135 123 104 85 76 58 40 25 10 15 19 23 22 19 18 8 11 9 12 5 5 6 6 5 11 6 7 9 19 14 14 15 14 23 33 9 6 9 26 21 31
74 77 83 84 72 74 86 86 91 92 99 116 132 126 112 90 73 59 51 36 9 9 9 9 17 19 26 29 14 26 8 8 13 5 4 4 4 6 5 5 12 2 9 1 8 5 17 29 39 27 28 25 32 30
70 67 77 91 107 100 105 117 123 128 128 119 117 108 87 75 54 42 45 29 16 10 6 5 5 2 19 27 17 7 6 9 9 7 4 3 4 3 3 5 5 8 25 6 11 14 18 37 34 34 30 34 29 28
65 67 71 81 92 101 103 108 107 104 105 107 100 86 75 65 46 39 37 26 16 9 6 3 2 3 6 17 25 26 7 4 12 9 5 4 4 17 7 8 9 10 20 9 7 17 23 34 37 27 28 27 28 25
55 60 63 66 70 75 87 93 92 89 89 86 81 72 59 48 36 27 27 16 8 2 8 6 11 8 5 4 14 20 19 10 9 5 6 5 7 5 8 7 8 18 10 6 4 17 12 19 20 25 28 30 27 23
48 51 52 58 64 71 75 74 76 75 72 67 62 58 47 37 32 34 8 12 23 17 6 3 5 9 12 11 20 23 19 9 6 11 7 10 13 12 7 7 14 19 16 18 6 11 24 22 32 30 28 26 22 21
44 41 46 48 52 55 63 66 63 65 69 57 44 38 31 28 36 12 9 13 13 8 5 4 4 7 9 10 8 15 20 12 11 11 10 9 17 14 6 6 9 10 8 22 14 19 16 22 15 24 24 23 21 22
43 37 36 38 41 44 43 39 38 45 50 42 37 30 29 19 15 17 17 12 17 6 3 5 4 6 21 12 4 11 11 11 22 12 12 7 7 11 8 9 9 9 4 15 24 24 22 16 16 22 23 25 26 31
36 36 30 29 30 33 36 31 31 34 34 29 24 17 16 9 8 12 18 21 14 7 11 8 4 2 21 15 8 8 7 7 9 6 6 7 6 10 2 4 7 13 9 8 13 19 20 23 20 23 27 30 32 35
44 40 43 31 24 23 25 23 22 22 20 20 17 3 6 8 22 9 1 1 9 19 15 5 7 4 16 15 7 2 7 5 5 6 8 7 5 6 3 3 3 6 12 16 12 11 18 22 24 28 29 30 32 35
29 38 41 43 42 40 27 22 19 20 17 14 3 8 13 9 5 9 12 16 17 8 19 13 11 5 18 4 4 8 2 3 5 4 5 4 4 9 10 8 7 9 11 15 16 15 16 19 24 29 31 33 36 38
12 9 10 10 22 29 27 19 20 16 6 11 18 22 12 13 14 11 5 7 11 1 19 9 13 11 11 11 4 8 5 5 6 1 5 4 5 20 19 14 11 8 8 9 11 14 17 20 24 28 32 35 39 43
33 26 7 16 13 14 16 17 17 15 21 5 5 10 15 17 17 10 9 6 6 16 21 19 4 13 15 11 4 5 9 4 1 7 3 3 19 23 19 16 11 4 4 11 15 18 21 24 26 32 36 38 43 47
25 29 20 16 22 17 1 12 21 12 7 8 14 12 9 8 7 4 3 4 7 11 28 19 11 9 10 5 4 9 3 5 6 6 4 5 30 26 21 15 6 4 11 15 20 23 26 29 31 32 36 42 49 53
19 17 19 4 7 9 18 22 7 9 11 14 14 10 7 4 1 4 10 10 7 16 19 7 6 5 5 6 5 6 6 4 5 7 4 27 31 24 16 6 5 9 14 17 21 25 28 32 35 36 35 39 44 50
22 25 8 5 11 10 12 6 9 10 14 13 18 10 6 3 5 1 4 4 10 15 3 2 4 7 6 3 9 3 8 6 6 6 30 36 27 18 9 4 6 11 15 18 22 26 28 33 39 43 44 45 49 52
13 5 33 29 6 8 10 4 13 18 13 11 11 15 8 5 3 7 12 14 19 8 1 6 6 7 3 7 5 6 8 6 18 38 35 26 18 13 7 3 6 11 15 19 22 26 32 36 40 44 46 45 48 50
16 10 6 5 7 24 30 15 14 14 17 14 7 5 7 6 6 8 16 18 10 3 2 2 10 8 7 8 6 7 10 27 37 37 31 23 17 11 6 2 7 13 18 21 24 25 29 34 39 42 46 50 52 52
38 25 18 11 11 9 11 15 15 14 12 6 4 5 3 4 7 12 15 13 2 2 5 4 8 4 6 11 11 31 44 38 43 35 27 22 15 9 4 6 9 12 15 18 22 26 29 34 41 45 48 50 54 56
35 34 26 11 7 9 12 13 13 13 7 6 2 4 1 2 10 7 9 7 3 3 4 4 6 5 7 22 27 36 35 33 31 28 23 18 12 9 9 11 12 16 19 21 25 29 33 33 33 41 45 47 54 58
31 24 20 11 24 23 16 11 14 12 9 4 5 7 6 8 4 10 11 15 5 3 1 4 13 29 34 35 36 33 27 25 22 15 17 18 15 12 14 16 18 20 23 23 27 24 29 34 36 38 42 44 49 53
31 30 16 20 13 13 16 19 12 9 5 4 4 11 7 8 13 14 24 7 3 3 6 19 31 32 33 32 30 28 26 26 25 20 16 15 15 16 18 19 20 19 20 21 25 27 28 32 37 39 44 48 51 56
23 16 11 15 10 11 8 8 5 6 6 6 4 5 5 7 8 18 5 4 4 12 24 29 28 28 28 29 30 30 29 26 22 18 18 16 15 16 17 18 23 21 18 14 27 27 29 31 36 41 45 50 56 60
5 6 8 10 14 6 7 7 6 5 4 6 5 5 6 9 17 3 4 7 15 28 33 33 35 36 35 37 37 32 28 25 22 24 21 20 19 16 22 19 24 22 22 22 24 25 26 29 34 39 45 51 54 60
2 11 6 7 7 8 9 8 10 8 2 1 3 5 6 10 6 4 5 9 30 37 35 37 39 39 38 29 29 32 35 32 28 25 22 26 23 22 23 23 24 23 25 24 21 23 23 28 32 36 40 46 53 59
8 2 4 7 3 7 11 7 7 11 7 2 9 3 4 5 4 11 7 14 30 41 46 47 45 46 47 43 38 38 34 30 32 35 25 32 29 28 25 26 25 21 25 22 22 23 23 27 31 36 39 43 48 57
6 9 7 10 10 15 9 9 8 5 6 11 6 4 5 2 10 11 14 21 25 27 30 34 38 43 38 31 35 37 38 41 40 36 33 35 34 32 31 29 25 23 23 23 24 26 27 29 33 37 41 42 46 53
7 19 12 24 9 11 11 4 9 14 9 14 20 7 14 16 11 8 15 18 23 27 31 35 39 42 41 38 37 41 46 49 48 44 42 41 38 35 33 30 27 27 26 25 26 28 30 33 36 40 45 49 51 52
7 23 25 7 9 9 18 12 13 16 16 25 11 8 10 16 16 17 23 27 31 35 39 42 45 47 49 52 55 58 57 54 53 55 53 47 39 34 30 30 29 30 29 28 29 31 33 36 40 44 47 52 56 59
11 27 6 8 13 12 12 20 9 15 27 28 17 16 24 45 49 47 48 49 51 55 53 52 52 56 58 59 61 63 63 62 60 58 56 49 35 30 33 32 31 31 33 32 32 34 37 40 43 46 50 52 54 57
16 17 5 8 6 6 9 18 19 16 17 22 37 41 49 46 84 84 68 65 67 72 75 77 76 75 74 73 72 69 70 65 60 55 50 46 42 40 39 36 36 37 37 37 37 39 41 43 45 49 53 57 59 62
10 8 3 3 4 5 7 8 7 9 10 11 13 19 17 15 18 26 26 15 13 16 22 37 54 70 74 80 79 77 73 65 57 50 45 44 45 43 43 44 45 43 41 40 41 43 44 47 51 54 59 62 63 66
3 6 6 2 2 3 6 5 4 7 10 9 9 8 11 11 19 14 14 15 12 13 17 21 24 31 37 44 59 74 81 77 68 60 53 47 43 41 42 43 42 41 41 41 43 45 46 49 53 56 60 63 66 70
Wind_Direction_500mb
12 19 20 27 53 54 85 105 123 132 144 149 158 158 146 152 163 157 144 141 104 106 154 178 177 164 155 170 161 174 100 227 173 147 120 210 150 200 220 231 186 172 178 202 216 228 240 343 341 229 56 60 53 56
23 33 36 49 50 75 93 105 119 127 135 146 142 146 147 147 149 165 159 174 179 78 119 186 191 199 193 181 186 167 185 191 174 107 198 150 174 202 195 200 25 129 349 50 24 35 64 43 71 59 78 80 54 57
32 41 50 58 75 92 101 110 118 121 125 131 138 138 139 149 148 150 150 147 161 73 79 138 142 187 221 219 217 154 206 207 146 147 155 160 118 9 161 81 118 46 11 75 219 68 57 57 59 62 63 63 62 54
42 50 61 76 78 85 93 101 107 116 126 133 136 139 142 146 138 148 147 154 180 175 120 21 168 226 262 237 231 232 277 182 138 136 103 104 59 11 52 68 69 338 329 5 98 110 101 55 42 46 49 53 63 57
49 58 69 76 84 93 106 112 117 121 126 133 140 146 145 155 167 161 155 155 191 270 155 139 109 33 337 233 209 212 228 195 112 70 49 72 83 84 82 93 57 4 1 351 54 14 63 68 45 45 47 38 44 47
58 66 73 80 87 96 105 114 116 121 126 132 137 135 130 130 147 162 104 98 109 95 110 85 89 95 121 124 138 152 157 108 89 85 83 72 38 20 76 58 27 16 23 15 12 27 82 108 46 44 40 33 41 42
74 73 81 85 90 97 107 114 120 129 131 127 125 138 143 147 155 162 153 158 137 102 68 38 12 29 114 126 108 94 94 73 72 75 65 72 29 47 63 99 21 353 43 33 57 164 65 53 27 31 37 35 35 30
81 80 89 96 103 109 114 120 119 125 139 139 132 123 134 142 151 91 112 128 139 128 128 95 308 37 22 16 42 44 76 75 41 87 65 79 52 57 74 49 15 359 33 43 61 79 88 73 53 37 34 30 26 19
91 100 96 103 115 121 128 136 132 133 142 143 151 165 125 77 84 117 102 84 100 153 108 65 85 238 360 7 41 61 85 66 45 64 64 67 22 48 67 23 18 23 39 26 87 63 71 58 45 30 25 20 15 6
106 112 112 107 111 125 144 153 158 161 164 165 153 164 47 48 125 128 36 58 41 34 52 84 338 325 351 355 35 331 63 103 68 48 95 62 83 121 161 158 86 50 54 66 105 50 50 36 23 15 10 1 352 345
88 106 122 130 138 147 164 165 167 178 181 177 154 71 92 109 80 46 43 39 346 36 16 3 18 329 15 29 343 24 97 75 81 16 81 75 122 159 177 148 122 95 75 64 61 48 26 9 356 349 347 343 335 330
61 92 100 134 156 163 170 187 202 190 151 116 99 87 43 30 42 65 45 0 36 45 345 331 325 340 344 352 298 1 88 47 84 106 88 78 140 158 163 160 149 121 82 47 22 8 357 349 342 339 338 335 332 331
32 32 23 207 164 161 184 210 217 200 130 109 93 73 15 357 44 34 350 353 13 354 4 347 342 342 346 360 354 17 66 79 66 37 132 124 147 162 162 160 155 142 9 354 348 342 343 344 342 337 336 333 331 331
19 26 24 84 157 197 270 142 141 134 306 39 40 40 41 23 52 26 309 310 320 330 336 334 307 357 343 13 340 80 286 74 69 69 218 188 171 163 163 161 170 297 318 332 335 339 340 339 341 343 339 336 333 334
19 8 9 6 100 118 133 142 125 355 54 62 38 57 66 161 81 304 309 308 315 321 345 347 293 343 2 64 43 123 52 29 190 182 189 157 158 157 157 176 288 316 329 336 332 338 342 338 340 347 345 340 335 336
33 33 15 71 65 171 180 224 259 81 61 56 55 87 106 97 346 35 332 331 332 329 337 10 0 46 12 114 47 189 98 217 221 203 150 150 148 155 176 227 305 328 336 336 335 335 340 339 344 348 351 345 341 339
345 52 56 62 116 156 155 68 57 57 60 60 53 42 79 138 207 328 347 357 335 334 147 125 80 198 158 54 39 197 180 217 158 143 142 143 150 167 183 238 304 326 333 331 335 341 347 345 344 343 344 344 342 339
53 47 356 357 31 56 77 55 76 77 68 74 102 65 58 57 1 10 348 344 349 314 299 224 126 62 137 141 255 219 166 139 144 146 149 157 170 181 194 247 315 336 340 337 336 339 338 338 340 339 339 338 337 336
23 9 14 75 43 66 60 47 45 86 79 98 98 3 292 317 346 351 351 347 348 48 171 215 75 155 215 208 181 156 157 153 157 158 165 175 185 201 265 316 321 319 319 322 327 332 335 337 336 337 337 335 333 338
19 20 13 348 15 72 77 58 61 84 104 137 82 336 276 240 317 322 352 334 305 243 38 48 205 220 152 138 145 148 148 154 161 166 182 189 196 218 249 271 291 305 317 321 326 331 332 337 335 331 333 335 334 339
5 15 27 45 55 63 78 66 66 76 101 72 0 348 299 313 321 355 353 4 170 116 190 120 138 133 136 141 149 154 161 167 174 181 181 192 202 232 263 281 293 305 314 320 326 336 327 331 337 337 337 340 336 337
346 351 15 41 64 70 67 50 83 99 102 104 23 7 7 359 347 348 333 5 22 45 130 152 148 151 156 159 162 167 173 185 192 195 207 221 236 247 260 272 287 302 306 314 317 325 331 328 332 335 336 338 337 339
336 354 45 37 79 59 72 66 83 54 82 344 342 32 334 332 321 333 277 241 207 180 173 172 173 175 179 185 190 194 197 201 204 211 227 240 243 249 259 268 280 291 301 307 305 315 322 326 331 335 337 339 339 340
11 71 44 47 48 107 101 61 68 93 86 31 46 337 312 303 329 28 240 245 200 188 190 190 192 195 201 205 208 207 209 217 222 230 237 248 252 251 263 268 272 289 298 301 303 310 319 329 334 338 340 340 341 340
65 12 48 11 78 97 57 16 352 51 132 307 52 322 318 338 18 343 233 246 206 204 201 205 210 216 224 228 222 218 223 228 232 240 235 252 257 255 259 266 271 279 283 295 300 310 321 326 333 337 341 340 340 341
82 337 73 183 167 132 182 131 188 186 146 153 226 274 1 76 47 247 233 227 212 208 211 217 219 220 227 228 227 226 232 233 237 244 234 248 253 257 258 260 264 267 280 288 297 310 320 324 330 334 339 340 340 338
134 224 154 147 132 132 87 97 121 113 152 191 200 124 86 159 243 248 229 224 219 224 226 228 229 232 239 239 236 231 233 238 243 247 244 246 251 254 258 263 266 273 275 284 296 305 314 319 324 328 332 338 340 337
143 165 169 168 151 169 132 122 159 197 209 171 141 185 183 199 233 216 213 217 222 228 228 230 232 236 238 235 233 233 232 237 242 246 249 250 251 255 259 261 262 263 267 278 288 296 305 313 319 323 327 330 336 337
145 153 142 104 144 197 212 185 206 200 185 176 171 217 236 225 235 238 241 236 237 236 238 240 240 238 235 232 230 234 236 236 235 239 245 251 250 252 258 257 257 259 266 273 281 291 300 307 313 316 321 326 331 334
165 164 143 153 155 210 200 200 210 204 201 208 232 262 264 263 267 268 268 265 259 255 256 254 252 247 245 241 239 239 241 241 241 243 247 252 260 262 255 256 256 259 265 272 278 284 290 297 304 309 312 316 320 323
159 181 159 183 228 223 216 215 228 237 244 246 246 253 264 282 285 288 286 280 271 262 255 251 249 247 246 243 241 241 242 243 245 248 252 256 257 257 259 260 260 263 268 274 279 285 291 296 301 306 312 316 320 322
165 186 171 225 266 247 214 212 232 235 241 242 247 242 269 275 279 289 282 291 285 280 279 268 261 260 255 252 251 249 250 252 251 253 253 255 256 256 256 256 258 263 269 275 281 288 294 300 304 308 312 314 317 319
168 196 212 256 243 237 217 231 273 291 254 258 254 251 238 245 251 256 274 275 286 295 300 302 302 287 270 260 250 246 245 244 244 246 248 251 252 253 249 250 257 265 272 279 285 291 294 298 302 306 308 311 314 315
Wind_Speed_850mb
80 86 92 87 71 77 85 84 101 111 102 102 112 135 123 104 85 76 58 40 25 10 15 19 23 22 19 18 8 11 9 12 5 5 6 6 5 11 6 7 9 19 14 14 15 14 23 33 9 6 9 26 21 31
74 77 83 84 72 74 86 86 91 92 99 116 132 126 112 90 73 59 51 36 9 9 9 9 17 19 26 29 14 26 8 8 13 5 4 4 4 6 5 5 12 2 9 1 8 5 17 29 39 27 28 25 32 30
70 67 77 91 107 100 105 117 123 128 128 119 117 108 87 75 54 42 45 29 16 10 6 5 5 2 19 27 17 7 6 9 9 7 4 3 4 3 3 5 5 8 25 6 11 14 18 37 34 34 30 34 29 28
65 67 71 81 92 101 103 108 107 104 105 107 100 86 75 65 46 39 37 26 16 9 6 3 2 3 6 17 25 26 7 4 12 9 5 4 4 17 7 8 9 10 20 9 7 17 23 34 37 27 28 27 28 25
55 60 63 66 70 75 87 93 92 89 89 86 81 72 59 48 36 27 27 16 8 2 8 6 11 8 5 4 14 20 19 10 9 5 6 5 7 5 8 7 8 18 10 6 4 17 12 19 20 25 28 30 27 23
48 51 52 58 64 71 75 74 76 75 72 67 62 58 47 37 32 34 8 12 23 17 6 3 5 9 12 11 20 23 19 9 6 11 7 10 13 12 7 7 14 19 16 18 6 11 24 22 32 30 28 26 22 21
44 41 46 48 52 55 63 66 63 65 69 57 44 38 31 28 36 12 9 13 13 8 5 4 4 7 9 10 8 15 20 12 11 11 10 9 17 14 6 6 9 10 8 22 14 19 16 22 15 24 24 23 21 22
43 37 36 38 41 44 43 39 38 45 50 42 37 30 29 19 15 17 17 12 17 6 3 5 4 6 21 12 4 11 11 11 22 12 12 7 7 11 8 9 9 9 4 15 24 24 22 16 16 22 23 25 26 31
36 36 30 29 30 33 36 31 31 34 34 29 24 17 16 9 8 12 18 21 14 7 11 8 4 2 21 15 8 8 7 7 9 6 6 7 6 10 2 4 7 13 9 8 13 19 20 23 20 23 27 30 32 35
44 40 43 31 24 23 25 23 22 22 20 20 17 3 6 8 22 9 1 1 9 19 15 5 7 4 16 15 7 2 7 5 5 6 8 7 5 6 3 3 3 6 12 16 12 11 18 22 24 28 29 30 32 35
29 38 41 43 42 40 27 22 19 20 17 14 3 8 13 9 5 9 12 16 17 8 19 13 11 5 18 4 4 8 2 3 5 4 5 4 4 9 10 8 7 9 11 15 16 15 16 19 24 29 31 33 36 38
12 9 10 10 22 29 27 19 20 16 6 11 18 22 12 13 14 11 5 7 11 1 19 9 13 11 11 11 4 8 5 5 6 1 5 4 5 20 19 14 11 8 8 9 11 14 17 20 24 28 32 35 39 43
33 26 7 16 13 14 16 17 17 15 21 5 5 10 15 17 17 10 9 6 6 16 21 19 4 13 15 11 4 5 9 4 1 7 3 3 19 23 19 16 11 4 4 11 15 18 21 24 26 32 36 38 43 47
25 29 20 16 22 17 1 12 21 12 7 8 14 12 9 8 7 4 3 4 7 11 28 19 11 9 10 5 4 9 3 5 6 6 4 5 30 26 21 15 6 4 11 15 20 23 26 29 31 32 36 42 49 53
19 17 19 4 7 9 18 22 7 9 11 14 14 10 7 4 1 4 10 10 7 16 19 7 6 5 5 6 5 6 6 4 5 7 4 27 31 24 16 6 5 9 14 17 21 25 28 32 35 36 35 39 44 50
22 25 8 5 11 10 12 6 9 10 14 13 18 10 6 3 5 1 4 4 10 15 3 2 4 7 6 3 9 3 8 6 6 6 30 36 27 18 9 4 6 11 15 18 22 26 28 33 39 43 44 45 49 52
13 5 33 29 6 8 10 4 13 18 13 11 11 15 8 5 3 7 12 14 19 8 1 6 6 7 3 7 5 6 8 6 18 38 35 26 18 13 7 3 6 11 15 19 22 26 32 36 40 44 46 45 48 50
16 10 6 5 7 24 30 15 14 14 17 14 7 5 7 6 6 8 16 18 10 3 2 2 10 8 7 8 6 7 10 27 37 37 31 23 17 11 6 2 7 13 18 21 24 25 29 34 39 42 46 50 52 52
38 25 18 11 11 9 11 15 15 14 12 6 4 5 3 4 7 12 15 13 2 2 5 4 8 4 6 11 11 31 44 38 43 35 27 22 15 9 4 6 9 12 15 18 22 26 29 34 41 45 48 50 54 56
35 34 26 11 7 9 12 13 13 13 7 6 2 4 1 2 10 7 9 7 3 3 4 4 6 5 7 22 27 36 35 33 31 28 23 18 12 9 9 11 12 16 19 21 25 29 33 33 33 41 45 47 54 58
31 24 20 11 24 23 16 11 14 12 9 4 5 7 6 8 4 10 11 15 5 3 1 4 13 29 34 35 36 33 27 25 22 15 17 18 15 12 14 16 18 20 23 23 27 24 29 34 36 38 42 44 49 53
31 30 16 20 13 13 16 19 12 9 5 4 4 11 7 8 13 14 24 7 3 3 6 19 31 32 33 32 30 28 26 26 25 20 16 15 15 16 18 19 20 19 20 21 25 27 28 32 37 39 44 48 51 56
23 16 11 15 10 11 8 8 5 6 6 6 4 5 5 7 8 18 5 4 4 12 24 29 28 28 28 29 30 30 29 26 22 18 18 16 15 16 17 18 23 21 18 14 27 27 29 31 36 41 45 50 56 60
5 6 8 10 14 6 7 7 6 5 4 6 5 5 6 9 17 3 4 7 15 28 33 33 35 36 35 37 37 32 28 25 22 24 21 20 19 16 22 19 24 22 22 22 24 25 26 29 34 39 45 51 54 60
2 11 6 7 7 8 9 8 10 8 2 1 3 5 6 10 6 4 5 9 30 37 35 37 39 39 38 29 29 32 35 32 28 25 22 26 23 22 23 23 24 23 25 24 21 23 23 28 32 36 40 46 53 59
8 2 4 7 3 7 11 7 7 11 7 2 9 3 4 5 4 11 7 14 30 41 46 47 45 46 47 43 38 38 34 30 32 35 25 32 29 28 25 26 25 21 25 22 22 23 23 27 31 36 39 43 48 57
6 9 7 10 10 15 9 9 8 5 6 11 6 4 5 2 10 11 14 21 25 27 30 34 38 43 38 31 35 37 38 41 40 36 33 35 34 32 31 29 25 23 23 23 24 26 27 29 33 37 41 42 46 53
7 19 12 24 9 11 11 4 9 14 9 14 20 7 14 16 11 8 15 18 23 27 31 35 39 42 41 38 37 41 46 49 48 44 42 41 38 35 33 30 27 27 26 25 26 28 30 33 36 40 45 49 51 52
7 23 25 7 9 9 18 12 13 16 16 25 11 8 10 16 16 17 23 27 31 35 39 42 45 47 49 52 55 58 57 54 53 55 53 47 39 34 30 30 29 30 29 28 29 31 33 36 40 44 47 52 56 59
11 27 6 8 13 12 12 20 9 15 27 28 17 16 24 45 49 47 48 49 51 55 53 52 52 56 58 59 61 63 63 62 60 58 56 49 35 30 33 32 31 31 33 32 32 34 37 40 43 46 50 52 54 57
16 17 5 8 6 6 9 18 19 16 17 22 37 41 49 46 84 84 68 65 67 72 75 77 76 75 74 73 72 69 70 65 60 55 50 46 42 40 39 36 36 37 37 37 37 39 41 43 45 49 53 57 59 62
10 8 3 3 4 5 7 8 7 9 10 11 13 19 17 15 18 26 26 15 13 16 22 37 54 70 74 80 79 77 73 65 57 50 45 44 45 43 43 44 45 43 41 40 41 43 44 47 51 54 59 62 63 66
3 6 6 2 2 3 6 5 4 7 10 9 9 8 11 11 19 14 14 15 12 13 17 21 24 31 37 44 59 74 81 77 68 60 53 47 43 41 42 43 42 41 41 41 43 45 46 49 53 56 60 63 66 70
Wind_Direction_850mb
12 19 20 27 53 54 85 105 123 132 144 149 158 158 146 152 163 157 144 141 104 106 154 178 177 164 155 170 161 174 100 227 173 147 120 210 150 200 220 231 186 172 178 202 216 228 240 343 341 229 56 60 53 56
23 33 36 49 50 75 93 105 119 127 135 146 142 146 147 147 149 165 159 174 179 78 119 186 191 199 193 181 186 167 185 191 174 107 198 150 174 202 195 200 25 129 349 50 24 35 64 43 71 59 78 80 54 57
32 41 50 58 75 92 101 110 118 121 125 131 138 138 139 149 148 150 150 147 161 73 79 138 142 187 221 219 217 154 206 207 146 147 155 160 118 9 161 81 118 46 11 75 219 68 57 57 59 62 63 63 62 54
42 50 61 76 78 85 93 101 107 116 126 133 136 139 142 146 138 148 147 154 180 175 120 21 168 226 262 237 231 232 277 182 138 136 103 104 59 11 52 68 69 338 329 5 98 110 101 55 42 46 49 53 63 57
49 58 69 76 84 93 106 112 117 121 126 133 140 146 145 155 167 161 155 155 191 270 155 139 109 33 337 233 209 212 228 195 112 70 49 72 83 84 82 93 57 4 1 351 54 14 63 68 45 45 47 38 44 47
58 66 73 80 87 96 105 114 116 121 126 132 137 135 130 130 147 162 104 98 109 95 110 85 89 95 121 124 138 152 157 108 89 85 83 72 38 20 76 58 27 16 23 15 12 27 82 108 46 44 40 33 41 42
74 73 81 85 90 97 107 114 120 129 131 127 125 138 143 147 155 162 153 158 137 102 68 38 12 29 114 126 108 94 94 73 72 75 65 72 29 47 63 99 21 353 43 33 57 164 65 53 27 31 37 35 35 30
81 80 89 96 103 109 114 120 119 125 139 139 132 123 134 142 151 91 112 128 139 128 128 95 308 37 22 16 42 44 76 75 41 87 65 79 52 57 74 49 15 359 33 43 61 79 88 73 53 37 34 30 26 19
91 100 96 103 115 121 128 136 132 133 142 143 151 165 125 77 84 117 102 84 100 153 108 65 85 238 360 7 41 61 85 66 45 64 64 67 22 48 67 23 18 23 39 26 87 63 71 58 45 30 25 20 15 6
106 112 112 107 111 125 144 153 158 161 164 165 153 164 47 48 125 128 36 58 41 34 52 84 338 325 351 355 35 331 63 103 68 48 95 62 83 121 161 158 86 50 54 66 105 50 50 36 23 15 10 1 352 345
88 106 122 130 138 147 164 165 167 178 181 177 154 71 92 109 80 46 43 39 346 36 16 3 18 329 15 29 343 24 97 75 81 16 81 75 122 159 177 148 122 95 75 64 61 48 26 9 356 349 347 343 335 330
61 92 100 134 156 163 170 187 202 190 151 116 99 87 43 30 42 65 45 0 36 45 345 331 325 340 344 352 298 1 88 47 84 106 88 78 140 158 163 160 149 121 82 47 22 8 357 349 342 339 338 335 332 331
32 32 23 207 164 161 184 210 217 200 130 109 93 73 15 357 44 34 350 353 13 354 4 347 342 342 346 360 354 17 66 79 66 37 132 124 147 162 162 160 155 142 9 354 348 342 343 344 342 337 336 333 331 331
19 26 24 84 157 197 270 142 141 134 306 39 40 40 41 23 52 26 309 310 320 330 336 334 307 357 343 13 340 80 286 74 69 69 218 188 171 163 163 161 170 297 318 332 335 339 340 339 341 343 339 336 333 334
19 8 9 6 100 118 133 142 125 355 54 62 38 57 66 161 81 304 309 308 315 321 345 347 293 343 2 64 43 123 52 29 190 182 189 157 158 157 157 176 288 316 329 336 332 338 342 338 340 347 345 340 335 336
33 33 15 71 65 171 180 224 259 81 61 56 55 87 106 97 346 35 332 331 332 329 337 10 0 46 12 114 47 189 98 217 221 203 150 150 148 155 176 227 305 328 336 336 335 335 340 339 344 348 351 345 341 339
345 52 56 62 116 156 155 68 57 57 60 60 53 42 79 138 207 328 347 357 335 334 147 125 80 198 158 54 39 197 180 217 158 143 142 143 150 167 183 238 304 326 333 331 335 341 347 345 344 343 344 344 342 339
53 47 356 357 31 56 77 55 76 77 68 74 102 65 58 57 1 10 348 344 349 314 299 224 126 62 137 141 255 219 166 139 144 146 149 157 170 181 194 247 315 336 340 337 336 339 338 338 340 339 339 338 337 336
23 9 14 75 43 66 60 47 45 86 79 98 98 3 292 317 346 351 351 347 348 48 171 215 75 155 215 208 181 156 157 153 157 158 165 175 185 201 265 316 321 319 319 322 327 332 335 337 336 337 337 335 333 338
19 20 13 348 15 72 77 58 61 84 104 137 82 336 276 240 317 322 352 334 305 243 38 48 205 220 152 138 145 148 148 154 161 166 182 189 196 218 249 271 291 305 317 321 326 331 332 337 335 331 333 335 334 339
5 15 27 45 55 63 78 66 66 76 101 72 0 348 299 313 321 355 353 4 170 116 190 120 138 133 136 141 149 154 161 167 174 181 181 192 202 232 263 281 293 305 314 320 326 336 327 331 337 337 337 340 336 337
346 351 15 41 64 70 67 50 83 99 102 104 23 7 7 359 347 348 333 5 22 45 130 152 148 151 156 159 162 167 173 185 192 195 207 221 236 247 260 272 287 302 306 314 317 325 331 328 332 335 336 338 337 339
336 354 45 37 79 59 72 66 83 54 82 344 342 32 334 332 321 333 277 241 207 180 173 172 173 175 179 185 190 194 197 201 204 211 227 240 243 249 259 268 280 291 301 307 305 315 322 326 331 335 337 339 339 340
11 71 44 47 48 107 101 61 68 93 86 31 46 337 312 303 329 28 240 245 200 188 190 190 192 195 201 205 208 207 209 217 222 230 237 248 252 251 263 268 272 289 298 301 303 310 319 329 334 338 340 340 341 340
65 12 48 11 78 97 57 16 352 51 132 307 52 322 318 338 18 343 233 246 206 204 201 205 210 216 224 228 222 218 223 228 232 240 235 252 257 255 259 266 271 279 283 295 300 310 321 326 333 337 341 340 340 341
82 337 73 183 167 132 182 131 188 186 146 153 226 274 1 76 47 247 233 227 212 208 211 217 219 220 227 228 227 226 232 233 237 244 234 248 253 257 258 260 264 267 280 288 297 310 320 324 330 334 339 340 340 338
134 224 154 147 132 132 87 97 121 113 152 191 200 124 86 159 243 248 229 224 219 224 226 228 229 232 239 239 236 231 233 238 243 247 244 246 251 254 258 263 266 273 275 284 296 305 314 319 324 328 332 338 340 337
143 165 169 168 151 169 132 122 159 197 209 171 141 185 183 199 233 216 213 217 222 228 228 230 232 236 238 235 233 233 232 237 242 246 249 250 251 255 259 261 262 263 267 278 288 296 305 313 319 323 327 330 336 337
145 153 142 104 144 197 212 185 206 200 185 176 171 217 236 225 235 238 241 236 237 236 238 240 240 238 235 232 230 234 236 236 235 239 245 251 250 252 258 257 257 259 266 273 281 291 300 307 313 316 321 326 331 334
165 164 143 153 155 210 200 200 210 204 201 208 232 262 264 263 267 268 268 265 259 255 256 254 252 247 245 241 239 239 241 241 241 243 247 252 260 262 255 256 256 259 265 272 278 284 290 297 304 309 312 316 320 323
159 181 159 183 228 223 216 215 228 237 244 246 246 253 264 282 285 288 286 280 271 262 255 251 249 247 246 243 241 241 242 243 245 248 252 256 257 257 259 260 260 263 268 274 279 285 291 296 301 306 312 316 320 322
165 186 171 225 266 247 214 212 232 235 241 242 247 242 269 275 279 289 282 291 285 280 279 268 261 260 255 252 251 249 250 252 251 253 253 255 256 256 256 256 258 263 269 275 281 288 294 300 304 308 312 314 317 319
168 196 212 256 243 237 217 231 273 291 254 258 254 251 238 245 251 256 274 275 286 295 300 302 302 287 270 260 250 246 245 244 244 246 248 251 252 253 249 250 257 265 272 279 285 291 294 298 302 306 308 311 314 315